AAL1226 KMIA-KDFW

Flight info

Callsign AAL1226
Flight time 2h 59m
Altitude 38000
Route GLADZ4 BAGGS REMIS Y280 REDFN Q105 HRV PNUTS BEREE3
Aircraft A21N/M-SDE2E3FGHIJ1RWXY/LB1

Departure

Time 2026-05-05 12:29
Airport Miami International Airport (KMIA)

Arrival

Time 2026-05-05 15:28
Airport Dallas Fort Worth International Airport (KDFW)
Time Latitude Longitude Altitude Speed Heading
2026-05-05 12:09 25.79787 -80.27835 14 ft 0 kts 177°
2026-05-05 12:19 25.79790 -80.27836 14 ft 2 kts 177°
2026-05-05 12:19 25.79804 -80.27837 14 ft 2 kts 177°
2026-05-05 12:19 25.79819 -80.27837 14 ft 2 kts 177°
2026-05-05 12:19 25.79833 -80.27838 14 ft 2 kts 177°
2026-05-05 12:20 25.79849 -80.27839 14 ft 2 kts 177°
2026-05-05 12:20 25.79865 -80.27840 13 ft 2 kts 189°
2026-05-05 12:20 25.79877 -80.27833 14 ft 2 kts 227°
2026-05-05 12:20 25.79885 -80.27818 14 ft 1 kts 260°
2026-05-05 12:21 25.79885 -80.27811 14 ft 1 kts 271°
2026-05-05 12:21 25.79885 -80.27808 14 ft 0 kts 268°
2026-05-05 12:24 25.79885 -80.27817 14 ft 5 kts 268°
2026-05-05 12:24 25.79913 -80.27895 13 ft 15 kts 335°
2026-05-05 12:24 25.80024 -80.27902 13 ft 15 kts 336°
2026-05-05 12:24 25.80049 -80.28008 13 ft 15 kts 267°
2026-05-05 12:25 25.80042 -80.28162 14 ft 22 kts 267°
2026-05-05 12:25 25.80035 -80.28330 13 ft 21 kts 268°
2026-05-05 12:25 25.80030 -80.28490 13 ft 20 kts 267°
2026-05-05 12:25 25.80022 -80.28645 13 ft 19 kts 267°
2026-05-05 12:26 25.80016 -80.28793 13 ft 19 kts 268°
2026-05-05 12:26 25.80010 -80.28938 14 ft 18 kts 268°
2026-05-05 12:26 25.80005 -80.29080 13 ft 18 kts 266°
2026-05-05 12:26 25.79998 -80.29218 13 ft 17 kts 268°
2026-05-05 12:27 25.79994 -80.29354 14 ft 17 kts 268°
2026-05-05 12:27 25.79988 -80.29490 13 ft 19 kts 267°
2026-05-05 12:27 25.79981 -80.29665 13 ft 23 kts 268°
2026-05-05 12:27 25.79974 -80.29842 13 ft 22 kts 268°
2026-05-05 12:28 25.79986 -80.30010 13 ft 21 kts 288°
2026-05-05 12:28 25.80040 -80.30116 13 ft 9 kts 345°
2026-05-05 12:28 25.80077 -80.30063 13 ft 14 kts 91°
2026-05-05 12:28 25.80090 -80.29694 14 ft 86 kts 88°
2026-05-05 12:29 25.80126 -80.28773 14 ft 151 kts 87°
2026-05-05 12:29 25.80176 -80.27500 371 ft 170 kts 86°
2026-05-05 12:29 25.80221 -80.26199 1028 ft 172 kts 86°
2026-05-05 12:29 25.80274 -80.24902 1794 ft 169 kts 86°
2026-05-05 12:30 25.80330 -80.23571 2297 ft 180 kts 86°
2026-05-05 12:30 25.80392 -80.22117 2688 ft 199 kts 86°
2026-05-05 12:30 25.80456 -80.20528 3139 ft 216 kts 86°
2026-05-05 12:30 25.80600 -80.18767 3506 ft 239 kts 74°
2026-05-05 12:31 25.81415 -80.17139 4032 ft 253 kts 44°
2026-05-05 12:31 25.82905 -80.16071 4716 ft 261 kts 17°
2026-05-05 12:31 25.84722 -80.15817 5340 ft 271 kts 359°
2026-05-05 12:31 25.86618 -80.15790 6162 ft 276 kts 359°
2026-05-05 12:32 25.88540 -80.15792 6995 ft 278 kts 353°
2026-05-05 12:32 25.90435 -80.16093 7796 ft 280 kts 344°
2026-05-05 12:32 25.92326 -80.16691 8620 ft 282 kts 339°
2026-05-05 12:32 25.94176 -80.17347 9439 ft 284 kts 338°
2026-05-05 12:33 25.96054 -80.18047 10246 ft 285 kts 333°
2026-05-05 12:33 25.97715 -80.19241 10767 ft 290 kts 313°
2026-05-05 12:33 25.98885 -80.21105 11121 ft 303 kts 292°
2026-05-05 12:33 25.99400 -80.23413 11446 ft 319 kts 277°
2026-05-05 12:34 25.99644 -80.25936 11762 ft 336 kts 275°
2026-05-05 12:34 25.99774 -80.28573 12045 ft 353 kts 272°
2026-05-05 12:34 25.99788 -80.31364 12322 ft 369 kts 271°
2026-05-05 12:34 25.99779 -80.34255 12585 ft 383 kts 270°
2026-05-05 12:35 25.99770 -80.37238 13078 ft 390 kts 271°
2026-05-05 12:35 25.99632 -80.40253 13676 ft 394 kts 263°
2026-05-05 12:35 25.98900 -80.43198 14270 ft 400 kts 251°
2026-05-05 12:35 25.97570 -80.45927 14840 ft 407 kts 239°
2026-05-05 12:36 25.95840 -80.48447 15454 ft 409 kts 236°
2026-05-05 12:36 25.94097 -80.50901 15957 ft 412 kts 236°
2026-05-05 12:36 25.92286 -80.53440 16472 ft 415 kts 236°
2026-05-05 12:36 25.90509 -80.55933 16964 ft 418 kts 237°
2026-05-05 12:37 25.88702 -80.58482 17472 ft 420 kts 237°
2026-05-05 12:37 25.86884 -80.61048 17963 ft 422 kts 237°
2026-05-05 12:37 25.85073 -80.63609 18396 ft 425 kts 237°
2026-05-05 12:37 25.83256 -80.66174 18798 ft 429 kts 237°
2026-05-05 12:38 25.81395 -80.68804 19247 ft 431 kts 237°
2026-05-05 12:38 25.79707 -80.71549 19654 ft 431 kts 243°
2026-05-05 12:38 25.78317 -80.74477 20057 ft 430 kts 250°
2026-05-05 12:38 25.77243 -80.77521 20458 ft 429 kts 255°
2026-05-05 12:39 25.76356 -80.80674 20850 ft 431 kts 257°
2026-05-05 12:39 25.75499 -80.83848 21232 ft 433 kts 257°
2026-05-05 12:39 25.74636 -80.87054 21615 ft 435 kts 257°
2026-05-05 12:39 25.73761 -80.90290 22000 ft 437 kts 257°
2026-05-05 12:40 25.72889 -80.93491 22398 ft 439 kts 257°
2026-05-05 12:40 25.72003 -80.96731 22786 ft 440 kts 257°
2026-05-05 12:40 25.71113 -80.99988 23114 ft 443 kts 257°
2026-05-05 12:40 25.70222 -81.03239 23433 ft 446 kts 257°
2026-05-05 12:41 25.69316 -81.06541 23883 ft 446 kts 257°
2026-05-05 12:41 25.68419 -81.09797 24424 ft 443 kts 257°
2026-05-05 12:41 25.67522 -81.13062 24938 ft 441 kts 258°
2026-05-05 12:41 25.66627 -81.16309 25401 ft 440 kts 258°
2026-05-05 12:42 25.65773 -81.19522 25833 ft 438 kts 261°
2026-05-05 12:42 25.65436 -81.22850 26261 ft 429 kts 274°
2026-05-05 12:42 25.65795 -81.26055 26701 ft 422 kts 286°
2026-05-05 12:42 25.66788 -81.29117 27169 ft 418 kts 296°
2026-05-05 12:43 25.68080 -81.31992 27659 ft 415 kts 298°
2026-05-05 12:43 25.69362 -81.34813 28106 ft 414 kts 298°
2026-05-05 12:43 25.70661 -81.37667 28574 ft 412 kts 298°
2026-05-05 12:43 25.71952 -81.40501 29042 ft 410 kts 298°
2026-05-05 12:44 25.73230 -81.43309 29487 ft 408 kts 299°
2026-05-05 12:44 25.74488 -81.46082 29907 ft 407 kts 299°
2026-05-05 12:44 25.75754 -81.48867 30344 ft 404 kts 299°
2026-05-05 12:44 25.77011 -81.51640 30817 ft 401 kts 299°
2026-05-05 12:45 25.78262 -81.54398 31272 ft 398 kts 299°
2026-05-05 12:45 25.79487 -81.57103 31720 ft 395 kts 299°
2026-05-05 12:45 25.80709 -81.59804 32110 ft 393 kts 300°
2026-05-05 12:45 25.81938 -81.62521 32490 ft 390 kts 300°
2026-05-05 12:46 25.83139 -81.65177 32888 ft 387 kts 300°
2026-05-05 12:46 25.84338 -81.67831 33300 ft 384 kts 300°
2026-05-05 12:46 25.85586 -81.70428 33734 ft 380 kts 303°
2026-05-05 12:46 25.86971 -81.72932 34150 ft 376 kts 305°
2026-05-05 12:47 25.88453 -81.75290 34505 ft 374 kts 309°
2026-05-05 12:47 25.90046 -81.77535 34823 ft 371 kts 311°
2026-05-05 12:47 25.91775 -81.79692 35133 ft 370 kts 314°
2026-05-05 12:47 25.93566 -81.81681 35425 ft 368 kts 317°
2026-05-05 12:48 25.95472 -81.83572 35734 ft 366 kts 320°
2026-05-05 12:48 25.97462 -81.85331 36015 ft 364 kts 321°
2026-05-05 12:48 25.99469 -81.87032 36270 ft 363 kts 322°
2026-05-05 12:48 26.01474 -81.88733 36514 ft 362 kts 321°
2026-05-05 12:49 26.03475 -81.90424 36749 ft 361 kts 322°
2026-05-05 12:49 26.05474 -81.92113 36958 ft 360 kts 322°
2026-05-05 12:49 26.07459 -81.93789 37123 ft 359 kts 321°
2026-05-05 12:49 26.09445 -81.95464 37288 ft 359 kts 322°
2026-05-05 12:50 26.11456 -81.97158 37440 ft 359 kts 322°
2026-05-05 12:50 26.13431 -81.98824 37645 ft 359 kts 321°
2026-05-05 12:50 26.15408 -82.00497 37836 ft 358 kts 322°
2026-05-05 12:50 26.17408 -82.02181 38008 ft 357 kts 322°
2026-05-05 12:51 26.21380 -82.05534 38041 ft 359 kts 322°
2026-05-05 12:51 26.25363 -82.08901 38043 ft 359 kts 322°
2026-05-05 12:52 26.29344 -82.12267 38043 ft 359 kts 321°
2026-05-05 12:52 26.33314 -82.15623 38045 ft 359 kts 321°
2026-05-05 12:53 26.37299 -82.18999 38041 ft 360 kts 321°
2026-05-05 12:53 26.41286 -82.22379 38045 ft 361 kts 321°
2026-05-05 12:54 26.47262 -82.27454 38039 ft 359 kts 322°
2026-05-05 12:55 26.51219 -82.30816 38040 ft 359 kts 321°
2026-05-05 12:55 26.55180 -82.34183 38042 ft 358 kts 322°
2026-05-05 12:56 26.59152 -82.37563 38040 ft 359 kts 322°
2026-05-05 12:56 26.63123 -82.40943 38041 ft 358 kts 322°
2026-05-05 12:57 26.67056 -82.44298 38040 ft 358 kts 321°
2026-05-05 12:57 26.71038 -82.47696 38044 ft 358 kts 322°
2026-05-05 12:58 26.74984 -82.51066 38042 ft 357 kts 321°
2026-05-05 12:58 26.78919 -82.54430 38040 ft 357 kts 321°
2026-05-05 12:59 26.82863 -82.57805 38038 ft 356 kts 321°
2026-05-05 12:59 26.86792 -82.61173 38039 ft 356 kts 321°
2026-05-05 13:00 26.92688 -82.66232 38043 ft 355 kts 321°
2026-05-05 13:01 27.00522 -82.72965 38052 ft 355 kts 321°
2026-05-05 13:01 27.04442 -82.76336 38055 ft 354 kts 321°
2026-05-05 13:02 27.08216 -82.79861 38054 ft 354 kts 316°
2026-05-05 13:02 27.11518 -82.83963 38055 ft 355 kts 309°
2026-05-05 13:03 27.14271 -82.88581 38056 ft 359 kts 303°
2026-05-05 13:03 27.16430 -82.93677 38057 ft 363 kts 296°
2026-05-05 13:04 27.18170 -82.98974 38058 ft 364 kts 295°
2026-05-05 13:04 27.19884 -83.04287 38056 ft 364 kts 295°
2026-05-05 13:05 27.21594 -83.09616 38053 ft 364 kts 295°
2026-05-05 13:05 27.23294 -83.14937 38054 ft 364 kts 295°
2026-05-05 13:06 27.25004 -83.20310 38055 ft 364 kts 295°
2026-05-05 13:06 27.26689 -83.25620 38053 ft 364 kts 295°
2026-05-05 13:07 27.28389 -83.30979 38049 ft 364 kts 295°
2026-05-05 13:07 27.30089 -83.36335 38047 ft 364 kts 295°
2026-05-05 13:08 27.31784 -83.41701 38049 ft 363 kts 295°
2026-05-05 13:08 27.33457 -83.47008 38047 ft 364 kts 295°
2026-05-05 13:09 27.35154 -83.52389 38040 ft 364 kts 295°
2026-05-05 13:09 27.36832 -83.57716 38042 ft 365 kts 295°
2026-05-05 13:10 27.38524 -83.63096 38037 ft 365 kts 295°
2026-05-05 13:10 27.40210 -83.68469 38040 ft 365 kts 295°
2026-05-05 13:11 27.41899 -83.73865 38039 ft 365 kts 294°
2026-05-05 13:11 27.43573 -83.79220 38036 ft 366 kts 294°
2026-05-05 13:12 27.45265 -83.84639 38040 ft 366 kts 294°
2026-05-05 13:12 27.46944 -83.90025 38039 ft 367 kts 295°
2026-05-05 13:13 27.48622 -83.95409 38034 ft 366 kts 294°
2026-05-05 13:13 27.50309 -84.00840 38031 ft 366 kts 294°
2026-05-05 13:14 27.51987 -84.06239 38029 ft 366 kts 294°
2026-05-05 13:14 27.53664 -84.11661 38036 ft 368 kts 294°
2026-05-05 13:15 27.55336 -84.17054 38032 ft 366 kts 294°
2026-05-05 13:15 27.57006 -84.22467 38034 ft 367 kts 295°
2026-05-05 13:16 27.58673 -84.27869 38035 ft 367 kts 294°
2026-05-05 13:16 27.60346 -84.33298 38032 ft 367 kts 294°
2026-05-05 13:17 27.62015 -84.38736 38035 ft 367 kts 294°
2026-05-05 13:17 27.63679 -84.44156 38036 ft 367 kts 294°
2026-05-05 13:18 27.65339 -84.49572 38036 ft 367 kts 294°
2026-05-05 13:18 27.67002 -84.55000 38035 ft 366 kts 294°
2026-05-05 13:19 27.68662 -84.60434 38036 ft 367 kts 294°
2026-05-05 13:19 27.70312 -84.65847 38039 ft 367 kts 294°
2026-05-05 13:20 27.71969 -84.71287 38038 ft 366 kts 293°
2026-05-05 13:20 27.73622 -84.76731 38039 ft 367 kts 294°
2026-05-05 13:21 27.75272 -84.82159 38036 ft 367 kts 294°
2026-05-05 13:21 27.76911 -84.87568 38038 ft 367 kts 293°
2026-05-05 13:22 27.78565 -84.93038 38037 ft 367 kts 293°
2026-05-05 13:22 27.80212 -84.98485 38036 ft 367 kts 293°
2026-05-05 13:23 27.81847 -85.03916 38034 ft 367 kts 293°
2026-05-05 13:23 27.83479 -85.09328 38038 ft 367 kts 293°
2026-05-05 13:24 27.85119 -85.14795 38036 ft 366 kts 293°
2026-05-05 13:24 27.86741 -85.20213 38036 ft 367 kts 293°
2026-05-05 13:25 27.88378 -85.25668 38037 ft 367 kts 293°
2026-05-05 13:25 27.90037 -85.31123 38035 ft 367 kts 293°
2026-05-05 13:26 27.91687 -85.36551 38037 ft 367 kts 293°
2026-05-05 13:26 27.93341 -85.42010 38034 ft 367 kts 293°
2026-05-05 13:27 27.94994 -85.47470 38037 ft 368 kts 293°
2026-05-05 13:27 27.96642 -85.52934 38035 ft 368 kts 293°
2026-05-05 13:28 27.98284 -85.58376 38036 ft 367 kts 292°
2026-05-05 13:28 27.99931 -85.63864 38034 ft 368 kts 293°
2026-05-05 13:29 28.01565 -85.69305 38036 ft 368 kts 292°
2026-05-05 13:29 28.03214 -85.74807 38038 ft 368 kts 292°
2026-05-05 13:30 28.04855 -85.80294 38035 ft 369 kts 292°
2026-05-05 13:30 28.06496 -85.85783 38035 ft 368 kts 292°
2026-05-05 13:31 28.08131 -85.91260 38038 ft 368 kts 292°
2026-05-05 13:31 28.09762 -85.96746 38038 ft 368 kts 292°
2026-05-05 13:32 28.11392 -86.02224 38037 ft 368 kts 292°
2026-05-05 13:32 28.13020 -86.07709 38037 ft 368 kts 292°
2026-05-05 13:33 28.14634 -86.13165 38037 ft 368 kts 292°
2026-05-05 13:33 28.16265 -86.18671 38039 ft 368 kts 292°
2026-05-05 13:34 28.17875 -86.24129 38037 ft 368 kts 292°
2026-05-05 13:34 28.19500 -86.29642 38037 ft 368 kts 292°
2026-05-05 13:35 28.21115 -86.35123 38035 ft 367 kts 292°
2026-05-05 13:35 28.22720 -86.40595 38036 ft 368 kts 292°
2026-05-05 13:36 28.24323 -86.46055 38038 ft 368 kts 292°
2026-05-05 13:36 28.25936 -86.51570 38037 ft 368 kts 292°
2026-05-05 13:37 28.27549 -86.57085 38038 ft 367 kts 292°
2026-05-05 13:37 28.29140 -86.62555 38037 ft 367 kts 292°
2026-05-05 13:38 28.30734 -86.68027 38037 ft 368 kts 291°
2026-05-05 13:38 28.32342 -86.73527 38037 ft 368 kts 292°
2026-05-05 13:39 28.33960 -86.79022 38036 ft 367 kts 292°
2026-05-05 13:39 28.35568 -86.84505 38036 ft 367 kts 292°
2026-05-05 13:40 28.37170 -86.89985 38036 ft 367 kts 292°
2026-05-05 13:40 28.38774 -86.95481 38037 ft 368 kts 291°
2026-05-05 13:41 28.40382 -87.01008 38034 ft 368 kts 292°
2026-05-05 13:41 28.41978 -87.06498 38035 ft 367 kts 292°
2026-05-05 13:42 28.43564 -87.11962 38036 ft 367 kts 291°
2026-05-05 13:42 28.45160 -87.17469 38033 ft 367 kts 291°
2026-05-05 13:43 28.46742 -87.22949 38034 ft 367 kts 292°
2026-05-05 13:43 28.48332 -87.28455 38033 ft 368 kts 291°
2026-05-05 13:44 28.49925 -87.33982 38033 ft 366 kts 291°
2026-05-05 13:44 28.51498 -87.39457 38032 ft 368 kts 291°
2026-05-05 13:45 28.53078 -87.44958 38031 ft 368 kts 292°
2026-05-05 13:45 28.54668 -87.50500 38030 ft 368 kts 291°
2026-05-05 13:46 28.56242 -87.55998 38030 ft 367 kts 291°
2026-05-05 13:46 28.57814 -87.61498 38029 ft 367 kts 291°
2026-05-05 13:47 28.59387 -87.67025 38031 ft 367 kts 291°
2026-05-05 13:47 28.60958 -87.72537 38028 ft 367 kts 291°
2026-05-05 13:48 28.62517 -87.78030 38029 ft 368 kts 291°
2026-05-05 13:48 28.64093 -87.83586 38023 ft 367 kts 291°
2026-05-05 13:49 28.65654 -87.89092 38025 ft 367 kts 291°
2026-05-05 13:49 28.67207 -87.94595 38020 ft 366 kts 291°
2026-05-05 13:50 28.68761 -88.00104 38018 ft 366 kts 291°
2026-05-05 13:50 28.70304 -88.05585 38013 ft 366 kts 290°
2026-05-05 13:51 28.71862 -88.11124 38018 ft 367 kts 291°
2026-05-05 13:51 28.73416 -88.16641 38014 ft 367 kts 290°
2026-05-05 13:52 28.74968 -88.22169 38017 ft 367 kts 291°
2026-05-05 13:52 28.76510 -88.27682 38012 ft 366 kts 291°
2026-05-05 13:53 28.78061 -88.33227 38015 ft 367 kts 290°
2026-05-05 13:53 28.79595 -88.38735 38012 ft 367 kts 290°
2026-05-05 13:54 28.81135 -88.44275 38014 ft 367 kts 290°
2026-05-05 13:54 28.82670 -88.49813 38017 ft 367 kts 290°
2026-05-05 13:55 28.84209 -88.55360 38014 ft 367 kts 290°
2026-05-05 13:55 28.85757 -88.60883 38012 ft 366 kts 292°
2026-05-05 13:56 28.87681 -88.66213 38017 ft 365 kts 296°
2026-05-05 13:56 28.89663 -88.70503 38016 ft 364 kts 300°
2026-05-05 13:57 28.92429 -88.75300 38012 ft 365 kts 305°
2026-05-05 13:57 28.95608 -88.79784 38019 ft 363 kts 309°
2026-05-05 13:58 28.98882 -88.84167 38015 ft 363 kts 309°
2026-05-05 13:58 29.02161 -88.88538 38016 ft 364 kts 308°
2026-05-05 13:59 29.07078 -88.95094 38015 ft 363 kts 308°
2026-05-05 14:00 29.11447 -89.00918 38016 ft 362 kts 309°
2026-05-05 14:00 29.15269 -89.06019 38017 ft 363 kts 308°
2026-05-05 14:01 29.18558 -89.10418 38016 ft 363 kts 308°
2026-05-05 14:01 29.21840 -89.14807 38015 ft 364 kts 308°
2026-05-05 14:02 29.25106 -89.19177 38011 ft 363 kts 308°
2026-05-05 14:02 29.28389 -89.23583 38012 ft 363 kts 308°
2026-05-05 14:03 29.31652 -89.27962 38012 ft 363 kts 308°
2026-05-05 14:03 29.34949 -89.32389 38010 ft 364 kts 309°
2026-05-05 14:04 29.38223 -89.36792 38009 ft 364 kts 309°
2026-05-05 14:04 29.41507 -89.41213 38010 ft 365 kts 308°
2026-05-05 14:05 29.44777 -89.45621 38004 ft 364 kts 308°
2026-05-05 14:05 29.48065 -89.50057 38011 ft 364 kts 308°
2026-05-05 14:06 29.51342 -89.54484 38004 ft 364 kts 308°
2026-05-05 14:06 29.54598 -89.58885 38005 ft 364 kts 308°
2026-05-05 14:07 29.57857 -89.63304 38003 ft 364 kts 308°
2026-05-05 14:07 29.61136 -89.67748 38001 ft 364 kts 307°
2026-05-05 14:08 29.64404 -89.72191 38004 ft 363 kts 308°
2026-05-05 14:08 29.67658 -89.76613 38003 ft 363 kts 308°
2026-05-05 14:09 29.70908 -89.81025 38002 ft 362 kts 308°
2026-05-05 14:09 29.74162 -89.85449 38004 ft 363 kts 307°
2026-05-05 14:10 29.77413 -89.89887 38003 ft 362 kts 307°
2026-05-05 14:10 29.80635 -89.94285 38003 ft 363 kts 307°
2026-05-05 14:11 29.83825 -89.98775 38001 ft 362 kts 305°
2026-05-05 14:11 29.86678 -90.03540 38002 ft 361 kts 301°
2026-05-05 14:12 29.89268 -90.08475 38004 ft 362 kts 300°
2026-05-05 14:12 29.91859 -90.13455 37997 ft 362 kts 300°
2026-05-05 14:13 29.94429 -90.18415 37998 ft 362 kts 300°
2026-05-05 14:13 29.97003 -90.23394 38002 ft 361 kts 300°
2026-05-05 14:14 29.99574 -90.28368 37995 ft 361 kts 300°
2026-05-05 14:14 30.02129 -90.33317 37995 ft 362 kts 300°
2026-05-05 14:15 30.04705 -90.38320 37996 ft 363 kts 300°
2026-05-05 14:15 30.07280 -90.43329 37992 ft 361 kts 300°
2026-05-05 14:16 30.09841 -90.48317 37994 ft 363 kts 300°
2026-05-05 14:16 30.12397 -90.53300 37997 ft 362 kts 300°
2026-05-05 14:17 30.14950 -90.58283 37991 ft 361 kts 300°
2026-05-05 14:17 30.17517 -90.63303 37989 ft 362 kts 300°
2026-05-05 14:18 30.20063 -90.68285 37988 ft 362 kts 299°
2026-05-05 14:18 30.22610 -90.73275 37986 ft 362 kts 299°
2026-05-05 14:19 30.25163 -90.78281 37984 ft 362 kts 299°
2026-05-05 14:19 30.27715 -90.83301 37980 ft 362 kts 299°
2026-05-05 14:20 30.30256 -90.88295 37985 ft 362 kts 299°
2026-05-05 14:20 30.32790 -90.93286 37981 ft 362 kts 299°
2026-05-05 14:21 30.35339 -90.98312 37984 ft 362 kts 299°
2026-05-05 14:21 30.37889 -91.03341 37983 ft 361 kts 299°
2026-05-05 14:22 30.40401 -91.08313 37978 ft 361 kts 299°
2026-05-05 14:22 30.42944 -91.13341 37972 ft 360 kts 299°
2026-05-05 14:23 30.45462 -91.18337 37975 ft 360 kts 299°
2026-05-05 14:23 30.47979 -91.23327 37974 ft 361 kts 299°
2026-05-05 14:24 30.50499 -91.28336 37970 ft 360 kts 299°
2026-05-05 14:24 30.52996 -91.33304 37968 ft 359 kts 298°
2026-05-05 14:25 30.55501 -91.38297 37964 ft 359 kts 299°
2026-05-05 14:25 30.58009 -91.43301 37964 ft 359 kts 299°
2026-05-05 14:26 30.60514 -91.48302 37962 ft 359 kts 298°
2026-05-05 14:26 30.63021 -91.53317 37964 ft 358 kts 298°
2026-05-05 14:27 30.65505 -91.58287 37963 ft 358 kts 298°
2026-05-05 14:27 30.68005 -91.63304 37962 ft 358 kts 299°
2026-05-05 14:28 30.70491 -91.68295 37960 ft 357 kts 298°
2026-05-05 14:28 30.72959 -91.73254 37957 ft 357 kts 298°
2026-05-05 14:29 30.75447 -91.78264 37950 ft 357 kts 298°
2026-05-05 14:29 30.77911 -91.83231 37944 ft 356 kts 298°
2026-05-05 14:30 30.80379 -91.88210 37943 ft 356 kts 298°
2026-05-05 14:30 30.82845 -91.93189 37940 ft 355 kts 298°
2026-05-05 14:31 30.85303 -91.98158 37934 ft 356 kts 298°
2026-05-05 14:31 30.87768 -92.03156 37937 ft 355 kts 298°
2026-05-05 14:32 30.90212 -92.08109 37939 ft 355 kts 298°
2026-05-05 14:32 30.92671 -92.13110 37940 ft 355 kts 298°
2026-05-05 14:33 30.95110 -92.18067 37932 ft 354 kts 298°
2026-05-05 14:33 30.97561 -92.23051 37932 ft 355 kts 297°
2026-05-05 14:34 31.00001 -92.28031 37932 ft 355 kts 298°
2026-05-05 14:34 31.02438 -92.33010 37941 ft 355 kts 298°
2026-05-05 14:35 31.04884 -92.38002 37937 ft 356 kts 297°
2026-05-05 14:35 31.07324 -92.43001 37934 ft 356 kts 297°
2026-05-05 14:36 31.09766 -92.48009 37936 ft 355 kts 297°
2026-05-05 14:36 31.12212 -92.53026 37933 ft 355 kts 297°
2026-05-05 14:37 31.14644 -92.58024 37932 ft 356 kts 297°
2026-05-05 14:37 31.17073 -92.63022 37924 ft 355 kts 297°
2026-05-05 14:38 31.19511 -92.68046 37924 ft 355 kts 296°
2026-05-05 14:38 31.21937 -92.73051 37923 ft 355 kts 297°
2026-05-05 14:39 31.24347 -92.78029 37921 ft 355 kts 296°
2026-05-05 14:39 31.26780 -92.83064 37912 ft 355 kts 297°
2026-05-05 14:40 31.29191 -92.88060 37910 ft 356 kts 296°
2026-05-05 14:40 31.31617 -92.93098 37920 ft 356 kts 297°
2026-05-05 14:41 31.34048 -92.98138 37921 ft 355 kts 296°
2026-05-05 14:41 31.36466 -93.03172 37918 ft 355 kts 297°
2026-05-05 14:42 31.38870 -93.08176 37912 ft 356 kts 296°
2026-05-05 14:42 31.41287 -93.13213 37909 ft 356 kts 296°
2026-05-05 14:43 31.43708 -93.18274 37906 ft 355 kts 297°
2026-05-05 14:43 31.46110 -93.23295 37904 ft 356 kts 297°
2026-05-05 14:44 31.48522 -93.28342 37903 ft 356 kts 296°
2026-05-05 14:44 31.50926 -93.33388 37896 ft 355 kts 296°
2026-05-05 14:45 31.53334 -93.38451 37901 ft 356 kts 296°
2026-05-05 14:45 31.55738 -93.43505 37900 ft 355 kts 296°
2026-05-05 14:46 31.58110 -93.48523 37899 ft 355 kts 296°
2026-05-05 14:46 31.60233 -93.53754 37898 ft 354 kts 291°
2026-05-05 14:47 31.61939 -93.59143 37897 ft 353 kts 287°
2026-05-05 14:47 31.63358 -93.64641 37894 ft 354 kts 287°
2026-05-05 14:48 31.64754 -93.70132 37895 ft 353 kts 286°
2026-05-05 14:48 31.66145 -93.75645 37890 ft 352 kts 286°
2026-05-05 14:49 31.67528 -93.81126 37891 ft 352 kts 286°
2026-05-05 14:49 31.68913 -93.86648 37887 ft 353 kts 286°
2026-05-05 14:50 31.70288 -93.92159 37887 ft 353 kts 285°
2026-05-05 14:50 31.71661 -93.97661 37888 ft 352 kts 285°
2026-05-05 14:51 31.73033 -94.03166 37881 ft 353 kts 285°
2026-05-05 14:51 31.74408 -94.08702 37877 ft 353 kts 286°
2026-05-05 14:52 31.75774 -94.14188 37872 ft 352 kts 285°
2026-05-05 14:52 31.77138 -94.19706 37863 ft 353 kts 285°
2026-05-05 14:53 31.78500 -94.25230 37865 ft 353 kts 285°
2026-05-05 14:53 31.79867 -94.30769 37865 ft 352 kts 285°
2026-05-05 14:54 31.81214 -94.36247 37864 ft 352 kts 285°
2026-05-05 14:54 31.82572 -94.41781 37855 ft 352 kts 285°
2026-05-05 14:55 31.83920 -94.47277 37860 ft 351 kts 285°
2026-05-05 14:55 31.85271 -94.52810 37860 ft 351 kts 285°
2026-05-05 14:56 31.86607 -94.58287 37857 ft 351 kts 285°
2026-05-05 14:56 31.87948 -94.63783 37852 ft 351 kts 285°
2026-05-05 14:57 31.89285 -94.69297 37856 ft 350 kts 284°
2026-05-05 14:57 31.90615 -94.74787 37849 ft 350 kts 284°
2026-05-05 14:58 31.91945 -94.80282 37851 ft 350 kts 285°
2026-05-05 14:58 31.93277 -94.85801 37849 ft 350 kts 284°
2026-05-05 14:59 31.94593 -94.91269 37847 ft 350 kts 284°
2026-05-05 14:59 31.95911 -94.96749 37844 ft 350 kts 284°
2026-05-05 15:00 31.97008 -95.01340 37847 ft 349 kts 284°
2026-05-05 15:00 31.98534 -95.07725 37855 ft 350 kts 284°
2026-05-05 15:01 31.99859 -95.13252 37860 ft 349 kts 284°
2026-05-05 15:01 32.01172 -95.18731 37857 ft 349 kts 284°
2026-05-05 15:02 32.02485 -95.24250 37854 ft 350 kts 284°
2026-05-05 15:02 32.03790 -95.29723 37849 ft 349 kts 284°
2026-05-05 15:03 32.05096 -95.35243 37850 ft 349 kts 284°
2026-05-05 15:03 32.06399 -95.40750 37853 ft 350 kts 283°
2026-05-05 15:04 32.07692 -95.46235 37848 ft 350 kts 283°
2026-05-05 15:04 32.08986 -95.51741 37848 ft 350 kts 284°
2026-05-05 15:05 32.10936 -95.60040 37843 ft 350 kts 283°
2026-05-05 15:06 32.12227 -95.65562 37849 ft 350 kts 283°
2026-05-05 15:06 32.13513 -95.71072 37843 ft 350 kts 283°
2026-05-05 15:07 32.14805 -95.76612 37838 ft 351 kts 283°
2026-05-05 15:07 32.16095 -95.82159 37828 ft 351 kts 283°
2026-05-05 15:08 32.17374 -95.87666 37811 ft 351 kts 283°
2026-05-05 15:08 32.18660 -95.93222 37817 ft 351 kts 283°
2026-05-05 15:08 32.19297 -95.95959 37646 ft 347 kts 283°
2026-05-05 15:09 32.19937 -95.98723 36716 ft 352 kts 283°
2026-05-05 15:09 32.20578 -96.01496 35326 ft 365 kts 283°
2026-05-05 15:09 32.21260 -96.04458 34048 ft 385 kts 283°
2026-05-05 15:09 32.21969 -96.07537 33595 ft 392 kts 284°
2026-05-05 15:10 32.22674 -96.10591 33769 ft 380 kts 283°
2026-05-05 15:10 32.23356 -96.13543 33465 ft 373 kts 283°
2026-05-05 15:10 32.24039 -96.16512 32533 ft 376 kts 284°
2026-05-05 15:10 32.24715 -96.19472 31423 ft 384 kts 284°
2026-05-05 15:11 32.25409 -96.22504 30268 ft 392 kts 284°
2026-05-05 15:11 32.26125 -96.25633 29108 ft 398 kts 284°
2026-05-05 15:11 32.26854 -96.28770 27976 ft 404 kts 285°
2026-05-05 15:11 32.27969 -96.31795 26809 ft 412 kts 296°
2026-05-05 15:12 32.29646 -96.34560 25680 ft 422 kts 306°
2026-05-05 15:12 32.31724 -96.37052 24515 ft 428 kts 309°
2026-05-05 15:12 32.33833 -96.39510 23419 ft 430 kts 310°
2026-05-05 15:12 32.35941 -96.41948 22617 ft 426 kts 309°
2026-05-05 15:13 32.38069 -96.44409 22077 ft 424 kts 310°
2026-05-05 15:13 32.40175 -96.46842 21826 ft 421 kts 310°
2026-05-05 15:13 32.42238 -96.49217 21583 ft 410 kts 310°
2026-05-05 15:13 32.44258 -96.51544 20795 ft 408 kts 310°
2026-05-05 15:14 32.46285 -96.53893 19539 ft 416 kts 310°
2026-05-05 15:14 32.48362 -96.56300 18483 ft 417 kts 311°
2026-05-05 15:14 32.50412 -96.58651 18055 ft 404 kts 311°
2026-05-05 15:14 32.52404 -96.60920 17563 ft 394 kts 311°
2026-05-05 15:15 32.54350 -96.63149 16767 ft 392 kts 311°
2026-05-05 15:15 32.56300 -96.65386 15943 ft 391 kts 311°
2026-05-05 15:15 32.58258 -96.67615 15360 ft 391 kts 311°
2026-05-05 15:15 32.60251 -96.69858 15060 ft 392 kts 311°
2026-05-05 15:16 32.62225 -96.72079 15025 ft 394 kts 311°
2026-05-05 15:16 32.64203 -96.74307 15021 ft 394 kts 312°
2026-05-05 15:16 32.66211 -96.76569 15005 ft 393 kts 312°
2026-05-05 15:16 32.68161 -96.78771 14681 ft 387 kts 311°
2026-05-05 15:17 32.70106 -96.80978 13905 ft 387 kts 311°
2026-05-05 15:17 32.72025 -96.83161 13080 ft 388 kts 311°
2026-05-05 15:17 32.73961 -96.85365 12408 ft 381 kts 312°
2026-05-05 15:17 32.75845 -96.87503 11987 ft 361 kts 312°
2026-05-05 15:18 32.77593 -96.89487 11623 ft 343 kts 312°
2026-05-05 15:18 32.79382 -96.91297 11272 ft 331 kts 324°
2026-05-05 15:18 32.81526 -96.92113 10916 ft 330 kts 350°
2026-05-05 15:18 32.83791 -96.92005 10623 ft 320 kts 359°
2026-05-05 15:19 32.85983 -96.91751 10367 ft 305 kts 359°
2026-05-05 15:19 32.88057 -96.91569 10037 ft 294 kts 357°
2026-05-05 15:19 32.90084 -96.91467 9536 ft 290 kts 355°
2026-05-05 15:19 32.92096 -96.91417 9001 ft 289 kts 355°
2026-05-05 15:20 32.94091 -96.91393 8583 ft 288 kts 354°
2026-05-05 15:20 32.96075 -96.91377 8233 ft 285 kts 354°
2026-05-05 15:20 32.98063 -96.91363 7866 ft 283 kts 354°
2026-05-05 15:20 33.00035 -96.91350 7494 ft 281 kts 354°
2026-05-05 15:21 33.01985 -96.91338 7122 ft 280 kts 354°
2026-05-05 15:21 33.03900 -96.91325 6759 ft 278 kts 354°
2026-05-05 15:21 33.05851 -96.91313 6385 ft 276 kts 354°
2026-05-05 15:21 33.07764 -96.91300 6028 ft 275 kts 354°
2026-05-05 15:22 33.09655 -96.91378 5638 ft 269 kts 343°
2026-05-05 15:22 33.11259 -96.92340 5171 ft 256 kts 309°
2026-05-05 15:22 33.12145 -96.94125 4767 ft 247 kts 284°
2026-05-05 15:22 33.12336 -96.96113 4397 ft 242 kts 264°
2026-05-05 15:23 33.11892 -96.97985 4195 ft 233 kts 244°
2026-05-05 15:23 33.10926 -96.99483 4017 ft 227 kts 224°
2026-05-05 15:23 33.09663 -97.00609 3853 ft 220 kts 219°
2026-05-05 15:23 33.08448 -97.01646 3696 ft 212 kts 219°
2026-05-05 15:24 33.07265 -97.02655 3538 ft 204 kts 219°
2026-05-05 15:24 33.06132 -97.03628 3361 ft 197 kts 219°
2026-05-05 15:24 33.05034 -97.04575 3111 ft 194 kts 219°
2026-05-05 15:24 33.03828 -97.05262 2924 ft 191 kts 197°
2026-05-05 15:25 33.02540 -97.05424 2731 ft 185 kts 187°
2026-05-05 15:25 33.01270 -97.05433 2479 ft 179 kts 185°
2026-05-05 15:25 33.00080 -97.05421 2224 ft 164 kts 185°
2026-05-05 15:25 32.98994 -97.05416 2024 ft 147 kts 185°
2026-05-05 15:26 32.98038 -97.05419 1830 ft 130 kts 185°
2026-05-05 15:26 32.97159 -97.05426 1657 ft 125 kts 185°
2026-05-05 15:26 32.96281 -97.05434 1520 ft 124 kts 185°
2026-05-05 15:26 32.95421 -97.05441 1365 ft 124 kts 184°
2026-05-05 15:27 32.94549 -97.05446 1209 ft 123 kts 184°
2026-05-05 15:27 32.93688 -97.05463 1035 ft 125 kts 183°
2026-05-05 15:27 32.92816 -97.05450 886 ft 125 kts 182°
2026-05-05 15:27 32.91949 -97.05454 730 ft 125 kts 184°
2026-05-05 15:28 32.91075 -97.05461 614 ft 118 kts 181°
2026-05-05 15:28 32.90402 -97.05469 613 ft 72 kts 180°
2026-05-05 15:28 32.90074 -97.05449 613 ft 29 kts 168°
2026-05-05 15:28 32.89914 -97.05378 613 ft 23 kts 152°
2026-05-05 15:29 32.89787 -97.05290 613 ft 18 kts 139°
2026-05-05 15:29 32.89760 -97.05153 613 ft 17 kts 86°
2026-05-05 15:29 32.89762 -97.05015 613 ft 16 kts 91°
2026-05-05 15:29 32.89759 -97.04881 613 ft 16 kts 90°
2026-05-05 15:30 32.89761 -97.04752 613 ft 15 kts 85°
2026-05-05 15:30 32.89765 -97.04678 613 ft 8 kts 89°
2026-05-05 15:30 32.89765 -97.04617 613 ft 7 kts 90°
2026-05-05 15:30 32.89765 -97.04565 613 ft 2 kts 90°
2026-05-05 15:31 32.89765 -97.04562 613 ft 0 kts 91°